STARLINK-3326 (50844 NORAD) Tracking and Keplerian Element Data
This shows tracking and keplerian element data for the satellite.
Feedback or suggestion? Click here.
Element | Value |
Catalog | 50844 |
Name | STARLINK-3326 |
Epoch Orbit | 2183 |
Epoch Day | 140.58334491 |
Epoch Year | 2022 |
RAAN | 295.0564 |
Inclination | 53.2183 |
Eccentricity | 0.0001994 |
Argument of Perigee | 39.3161 |
Mean Anonmoly | 172.159 |
Mean Motion | 15.08857797 |
Decay Rate | -0.0002812 |
L1 | 1 50844U 22001AT 22140.58334491 -.00028120 00000+0 -17547-2 0 9992 |
L2 | 2 50844 53.2183 295.0564 0001994 39.3161 172.1590 15.08857797 21838 |
Live tracking and technical data element details for STARLINK-3326 (NORAD 50844). STARLINK-3326 can be tracked NOW for your location showing map with azimuth and elevation plus other details from your city location.
Track the satellite on the map from your city or location and see movement details for azimuth, elevation, latitude, longitude, range, height, and movement on the map or in text.
IsCatalogInMostPopularTable: catalog: 50844, numindb: 20
Update: records affected: 1
GetName: 50844 STARLINK-3326
Hit Count: updated at: Sun, 22 May 2022 05:31:26 GMT